Boulder City, NV

1:33 PM PST on November 21, 2019 (GMT -0800)
Boulder City

Weather History for KBVU - September, 2019

Change the Weather History Date:

Sunday, September 15, 2019

  Actual Average (WUND) Record (WUND)
Temperature  
Mean Temperature 86 °F -  
Max Temperature 98 °F - - (-1)
Min Temperature 73 °F - - (-1)
Cooling Degree Days 20    
Growing Degree Days 36 (Base 50)    
Moisture  
Dew Point 46 °F    
Average Humidity 24    
Maximum Humidity 42    
Minimum Humidity 12    
Precipitation  
Precipitation 0.00 in - - ()
Sea Level Pressure  
Sea Level Pressure 29.89 in    
Wind  
Wind Speed 7 mph ()    
Max Wind Speed 24 mph    
Max Gust Speed 33 mph    
Visibility 10.0 miles    
Events      
Averages and records for this station are not official NWS values.
T = Trace of Precipitation, MM = Missing Value Source: Averaged Metar Reports

Daily Weather History Graph

Daily Weather History Graph

Search for Another Location

Airport or City:

Astronomy

Sep. 15, 2019 Rise Set
Actual Time 6:21 AM PDT 6:46 PM PDT
Civil Twilight 5:56 AM PDT 7:12 PM PDT
Nautical Twilight 5:26 AM PDT 7:42 PM PDT
Astronomical Twilight 4:55 AM PDT 8:13 PM PDT
Moon 7:58 PM PDT (9/15) 7:35 AM PDT (9/15)
Length of Visible Light 13h 16m
Length of Day
12h 24m
Full, 98% of the Moon is Illuminated
Sep 15
Full
Sep 21
Last Quarter
Sep 28
New
Oct 5
First Quarter
Oct 13
Full

Hourly Weather History & Observations

Time (PDT) Temp. Dew Point Humidity Pressure Visibility Wind Dir Wind Speed Gust Speed Precip Events Conditions
12:15 AM 77.0 °F 33.8 °F 21% 29.94 in 10.0 mi NNE 5.8 mph - N/A   Clear
12:35 AM 78.8 °F 32.0 °F 18% 29.95 in 10.0 mi Calm Calm - N/A   Clear
12:55 AM 82.4 °F 24.8 °F 12% 29.96 in 10.0 mi ESE 5.8 mph - N/A   Scattered Clouds
1:15 AM 82.4 °F 26.6 °F 13% 29.96 in 10.0 mi WSW 10.4 mph - N/A   Mostly Cloudy
1:35 AM 82.4 °F 37.4 °F 20% 29.96 in 10.0 mi SSW 6.9 mph - N/A   Partly Cloudy
1:55 AM 82.4 °F 42.8 °F 25% 29.96 in 10.0 mi Calm Calm 11.5 mph N/A   Clear
2:15 AM 78.8 °F 44.6 °F 30% 29.95 in 10.0 mi Calm Calm - N/A   Clear
2:35 AM 82.4 °F 46.4 °F 28% 29.95 in 10.0 mi Calm Calm - N/A   Clear
2:55 AM 82.4 °F 48.2 °F 30% 29.94 in 10.0 mi SSE 10.4 mph - N/A   Clear
3:15 AM 82.4 °F 48.2 °F 30% 29.94 in 10.0 mi ESE 5.8 mph - N/A   Partly Cloudy
3:35 AM 82.4 °F 48.2 °F 30% 29.93 in 10.0 mi ESE 6.9 mph - N/A   Clear
3:55 AM 80.6 °F 48.2 °F 32% 29.93 in 10.0 mi SE 8.1 mph - N/A   Clear
4:15 AM 78.8 °F 48.2 °F 34% 29.92 in 10.0 mi Calm Calm - N/A   Clear
4:35 AM 77.0 °F 50.0 °F 39% 29.92 in 10.0 mi Calm Calm - N/A   Clear
4:55 AM 77.0 °F 48.2 °F 36% 29.93 in 10.0 mi Calm Calm - N/A   Clear
5:15 AM 73.4 °F 48.2 °F 41% 29.93 in 10.0 mi Calm Calm - N/A   Clear
5:35 AM 77.0 °F 48.2 °F 36% 29.93 in 10.0 mi West 4.6 mph - N/A   Clear
5:55 AM 77.0 °F 48.2 °F 36% 29.94 in 10.0 mi Calm Calm - N/A   Clear
6:15 AM 75.2 °F 50.0 °F 41% 29.95 in 10.0 mi West 3.5 mph - N/A   Clear
6:55 AM 73.4 °F 48.2 °F 41% 29.95 in 10.0 mi NW 4.6 mph - N/A   Clear
7:15 AM 75.2 °F 50.0 °F 41% 29.95 in 10.0 mi Calm Calm - N/A   Clear
7:35 AM 78.8 °F 53.6 °F 42% 29.96 in 10.0 mi Calm Calm - N/A   Clear
7:55 AM 82.4 °F 50.0 °F 32% 29.97 in 10.0 mi SSE 6.9 mph - N/A   Clear
8:35 AM 84.2 °F 50.0 °F 30% 29.97 in 10.0 mi South 4.6 mph - N/A   Clear
8:55 AM 86.0 °F 50.0 °F 29% 29.97 in 10.0 mi Variable 4.6 mph - N/A   Clear
9:15 AM 87.8 °F 50.0 °F 27% 29.97 in 10.0 mi SSE 9.2 mph - N/A   Clear
9:35 AM 87.8 °F 50.0 °F 27% 29.97 in 10.0 mi SSE 11.5 mph - N/A   Clear
9:55 AM 89.6 °F 50.0 °F 26% 29.97 in 10.0 mi SSE 10.4 mph - N/A   Clear
10:15 AM 89.6 °F 50.0 °F 26% 29.96 in 10.0 mi SSE 11.5 mph - N/A   Clear
10:35 AM 89.6 °F 48.2 °F 24% 29.96 in 10.0 mi South 10.4 mph 16.1 mph N/A   Clear
10:55 AM 91.4 °F 50.0 °F 24% 29.95 in 10.0 mi SE 11.5 mph 18.4 mph N/A   Clear
11:15 AM 93.2 °F 48.2 °F 21% 29.95 in 10.0 mi SE 15.0 mph - N/A   Clear
11:35 AM 93.2 °F 48.2 °F 21% 29.94 in 10.0 mi SSE 8.1 mph 16.1 mph N/A   Clear
11:55 AM 95.0 °F 48.2 °F 20% 29.93 in 10.0 mi Variable 6.9 mph 16.1 mph N/A   Clear
12:15 PM 95.0 °F 44.6 °F 18% 29.92 in 10.0 mi Variable 4.6 mph 13.8 mph N/A   Clear
12:35 PM 95.0 °F 46.4 °F 19% 29.91 in 10.0 mi SSE 11.5 mph 18.4 mph N/A   Clear
12:55 PM 96.8 °F 46.4 °F 18% 29.90 in 10.0 mi SE 13.8 mph 24.2 mph N/A   Clear
1:15 PM 96.8 °F 42.8 °F 16% 29.89 in 10.0 mi SSE 13.8 mph 21.9 mph N/A   Clear
1:35 PM 96.8 °F 42.8 °F 16% 29.88 in 10.0 mi SE 15.0 mph 24.2 mph N/A   Clear
1:55 PM 96.8 °F 44.6 °F 17% 29.87 in 10.0 mi SSE 15.0 mph - N/A   Clear
2:15 PM 96.8 °F 46.4 °F 18% 29.85 in 10.0 mi SE 16.1 mph - N/A   Clear
2:35 PM 98.6 °F 46.4 °F 17% 29.84 in 10.0 mi SSE 18.4 mph 25.3 mph N/A   Clear
2:55 PM 96.8 °F 46.4 °F 18% 29.83 in 10.0 mi SE 18.4 mph 25.3 mph N/A   Clear
3:15 PM 96.8 °F 46.4 °F 18% 29.82 in 10.0 mi SSE 17.3 mph 24.2 mph N/A   Clear
3:35 PM 98.6 °F 46.4 °F 17% 29.81 in 10.0 mi SSE 19.6 mph 25.3 mph N/A   Clear
3:55 PM 96.8 °F 46.4 °F 18% 29.80 in 10.0 mi SE 20.7 mph - N/A   Clear
4:15 PM 98.6 °F 46.4 °F 17% 29.79 in 10.0 mi SE 23.0 mph 29.9 mph N/A   Clear
4:35 PM 96.8 °F 46.4 °F 18% 29.79 in 10.0 mi SSE 20.7 mph 31.1 mph N/A   Clear
4:55 PM 96.8 °F 46.4 °F 18% 29.79 in 10.0 mi SSE 24.2 mph - N/A   Clear
5:15 PM 95.0 °F 46.4 °F 19% 29.79 in 10.0 mi SSE 23.0 mph 31.1 mph N/A   Clear
5:35 PM 95.0 °F 48.2 °F 20% 29.79 in 10.0 mi SSE 23.0 mph 33.4 mph N/A   Clear
5:55 PM 95.0 °F 46.4 °F 19% 29.79 in 10.0 mi SSE 20.7 mph 27.6 mph N/A   Clear
6:15 PM 93.2 °F 48.2 °F 21% 29.79 in 10.0 mi SSE 24.2 mph 31.1 mph N/A   Clear
6:35 PM 93.2 °F 46.4 °F 20% 29.79 in 10.0 mi SSE 20.7 mph 26.5 mph N/A   Clear
6:55 PM 91.4 °F 46.4 °F 21% 29.80 in 10.0 mi South 17.3 mph 23.0 mph N/A   Clear
7:15 PM 91.4 °F 46.4 °F 21% 29.80 in 10.0 mi South 11.5 mph 17.3 mph N/A   Clear
7:35 PM 91.4 °F 46.4 °F 21% 29.80 in 10.0 mi South 12.7 mph 19.6 mph N/A   Clear
7:55 PM 89.6 °F 42.8 °F 20% 29.81 in 10.0 mi South 9.2 mph - N/A   Clear
8:15 PM 89.6 °F 41.0 °F 18% 29.82 in 10.0 mi South 8.1 mph - N/A   Clear
8:35 PM 87.8 °F 39.2 °F 18% 29.82 in 10.0 mi SSE 10.4 mph - N/A   Clear
8:55 PM 87.8 °F 41.0 °F 19% 29.83 in 10.0 mi South 10.4 mph - N/A   Clear
9:15 PM 87.8 °F 42.8 °F 21% 29.83 in 10.0 mi South 9.2 mph - N/A   Clear
9:35 PM 87.8 °F 46.4 °F 24% 29.83 in 10.0 mi South 9.2 mph - N/A   Clear
9:55 PM 87.8 °F 46.4 °F 24% 29.83 in 10.0 mi South 10.4 mph - N/A   Clear
10:15 PM 86.0 °F 44.6 °F 23% 29.83 in 10.0 mi Calm Calm 11.5 mph N/A   Clear
10:35 PM 87.8 °F 42.8 °F 21% 29.83 in 10.0 mi SW 6.9 mph - N/A   Clear
10:55 PM 86.0 °F 42.8 °F 22% 29.83 in 10.0 mi SW 5.8 mph - N/A   Clear
11:15 PM 84.2 °F 41.0 °F 22% 29.83 in 10.0 mi Calm Calm - N/A   Clear
11:35 PM 82.4 °F 44.6 °F 26% 29.83 in 10.0 mi Calm Calm - N/A   Partly Cloudy
11:55 PM 80.6 °F 44.6 °F 28% 29.83 in 10.0 mi Calm Calm - N/A   Clear